STARLINK-35135

Satellite information

Favourite Embed

Satellite Type and Status

PAYLOADIN ORBIT

Key statistics

Satellite STARLINK-35135 at a glance.

Uptime

30

Days in orbit

Revolutions

≈ 15.4

Per day

Orbit

LEO

Low Earth Orbit

Inclination

53.2

Latest

Satellite identification and parameters

Extended collection of information and parameters for STARLINK-35135.

Object identification

Identified? True

Debris? False

Object name: STARLINK-35135

International designator: 2025-210H

Object number (NORAD): 65629

Object ID (CCSDS): 65629

Country: UNITED STATES OF AMERICA (US)

Current information (Y/N): Y

Orbital parameters

Period: 93.528 minutes

Inclination: 53.1598 deg

SMA: 6825.298 km

Apoapsis: 448.193 km

Periapsis: 446.132 km

RAAN: 255.4655 deg

Eccentricy: 0.000151

Argument of periapsis: 101.6832 deg

Mean anomaly: 258.4343 deg

Mean motion: 15.39644117 rev/day

Mean motion (dot): 0.00055761 rev/day2

B* drag term: 0.0013927 1/REarth

Two-line elements (TLE)

Creation date: Oct. 17, 2025, 7:46 p.m.

Reference frame: TEME

Reference center: EARTH

Epoch: Oct. 17, 2025, 7 a.m. UTC

TLE line 0: 0 STARLINK-35135

TLE line 1: 1 65629U 25210H 25290.29232984 .00055761 00000-0 13927-2 0 9993

TLE line 2: 2 65629 53.1598 255.4655 0001510 101.6832 258.4343 15.39644117 5747

Live tracking on map

Real-time ground track for satellite STARLINK-35135.

In-orbit conjunctions

There are no conjunctions computed for STARLINK-35135, at the moment. Check back to stay up to date, as we update our databases every day.

Go to all conjunctions

Associated space launch

A batch of 28 satellites for the Starlink mega-constellation - SpaceX's project for space-based Internet communication system.

STARLINK-35135 was lifted into orbit during the mission ‘Falcon 9 Block 5 | Starlink Group 10-61’, on board a Falcon 9 space rocket.

The launch took place on Sept. 18, 2025, 9:30 a.m. from Space Launch Complex 40.

For more information about the launch, click the button.

Launch to space Falcon 9 Block 5 | Starlink Group 10-61
Falcon 9 Block 5 | Starlink Group 10-61

Agency: SpaceX

Status: Launch Successful

Launch date: Sept. 18, 2025, 9:30 a.m. UTC

Rocket: Falcon 9

Launch pad: Space Launch Complex 40

Location: Cape Canaveral SFS, FL, USA

...

Latest news about this satellite

News about space launch
Live coverage: SpaceX to launch 28 Starlink satellites on Falcon 9 rocket from Cape Canaveral

The Falcon 9 rocket supporting the Starlink 10-61 mission will fly on a north-easterly trajectory upon departing Florida’s Space Coast. SpaceX is targeting liftoff from pad 40 at Cape Canaveral Space Force Station at 5:30 a.m. EDT (0930 UTC).

News about space launch
Launch Roundup: Starlink, NRO, and New Shepard missions scheduled

Another busy week of launches has arrived, with SpaceX dominating the launch manifest with four… The post Launch Roundup: Starlink, NRO, and New Shepard missions scheduled appeared first on NASASpaceFlight.com.


Newsletter sign-up

Weekly statistics, charts and insights to help you stay on top of the space industry.